BER368S EDDS-LIML

Flight info

Callsign BER368S
Flight time 0h 46m
Altitude 23000
Route ROTWE7H ROTWE Y126 TUBLO N850 NATOR DCT TRA DCT RIPUS DCT GERSA DCT SOSON DCT ODINA
Aircraft A320/M-SDE3FGHIRWY/LB1

Departure

Time 2026-04-30 19:55
Airport Stuttgart Airport (EDDS)

Arrival

Time 2026-04-30 20:41
Airport Milano Linate Airport (LIML)
Time Latitude Longitude Altitude Speed Heading
2026-04-30 19:29 48.68912 9.19513 1290 ft 0 kts 344°
2026-04-30 19:45 48.68893 9.19521 1291 ft 4 kts 346°
2026-04-30 19:45 48.68867 9.19530 1287 ft 4 kts 354°
2026-04-30 19:45 48.68842 9.19528 1287 ft 4 kts 31°
2026-04-30 19:46 48.68832 9.19515 1290 ft 1 kts 74°
2026-04-30 19:49 48.68844 9.19574 1287 ft 6 kts 75°
2026-04-30 19:49 48.68858 9.19652 1285 ft 10 kts 75°
2026-04-30 19:50 48.68879 9.19771 1289 ft 13 kts 75°
2026-04-30 19:50 48.68848 9.19865 1285 ft 11 kts 133°
2026-04-30 19:50 48.68785 9.19943 1286 ft 13 kts 158°
2026-04-30 19:50 48.68702 9.19979 1290 ft 11 kts 163°
2026-04-30 19:51 48.68640 9.20006 1291 ft 8 kts 164°
2026-04-30 19:51 48.68585 9.20047 1287 ft 8 kts 122°
2026-04-30 19:51 48.68589 9.20098 1283 ft 0 kts 73°
2026-04-30 19:54 48.68594 9.20122 1284 ft 10 kts 73°
2026-04-30 19:54 48.68677 9.20560 1277 ft 80 kts 73°
2026-04-30 19:55 48.68890 9.21681 1263 ft 140 kts 73°
2026-04-30 19:55 48.69181 9.23242 1627 ft 155 kts 75°
2026-04-30 19:55 48.69456 9.24805 2424 ft 153 kts 76°
2026-04-30 19:55 48.69752 9.26355 3058 ft 159 kts 77°
2026-04-30 19:56 48.70074 9.28058 3395 ft 178 kts 78°
2026-04-30 19:56 48.70430 9.29956 3744 ft 197 kts 78°
2026-04-30 19:56 48.70843 9.32098 3990 ft 227 kts 76°
2026-04-30 19:56 48.71277 9.34404 4798 ft 225 kts 83°
2026-04-30 19:57 48.71053 9.36700 5582 ft 226 kts 117°
2026-04-30 19:57 48.70072 9.38589 6334 ft 235 kts 140°
2026-04-30 19:57 48.68583 9.39731 7023 ft 247 kts 160°
2026-04-30 19:57 48.66866 9.40167 7727 ft 255 kts 175°
2026-04-30 19:58 48.65080 9.39860 8492 ft 264 kts 193°
2026-04-30 19:58 48.63394 9.38681 9260 ft 272 kts 213°
2026-04-30 19:58 48.62011 9.36565 9685 ft 296 kts 237°
2026-04-30 19:58 48.61268 9.33630 10322 ft 305 kts 261°
2026-04-30 19:59 48.61301 9.30394 10828 ft 318 kts 279°
2026-04-30 19:59 48.61554 9.26949 11029 ft 342 kts 272°
2026-04-30 19:59 48.60438 9.19629 11661 ft 374 kts 238°
2026-04-30 20:00 48.58954 9.16377 12288 ft 378 kts 233°
2026-04-30 20:00 48.57393 9.13151 12950 ft 383 kts 232°
2026-04-30 20:00 48.55802 9.09899 13638 ft 386 kts 232°
2026-04-30 20:00 48.54189 9.06627 14154 ft 391 kts 232°
2026-04-30 20:01 48.50917 9.00027 14990 ft 396 kts 232°
2026-04-30 20:01 48.49264 8.96693 15588 ft 399 kts 232°
2026-04-30 20:01 48.47598 8.93325 16172 ft 402 kts 232°
2026-04-30 20:02 48.44225 8.86506 17333 ft 410 kts 232°
2026-04-30 20:02 48.42511 8.83049 17907 ft 414 kts 232°
2026-04-30 20:03 48.39057 8.76098 18987 ft 421 kts 232°
2026-04-30 20:03 48.37298 8.72563 19493 ft 424 kts 232°
2026-04-30 20:03 48.35520 8.68996 20002 ft 427 kts 232°
2026-04-30 20:03 48.33730 8.65409 20503 ft 430 kts 232°
2026-04-30 20:04 48.31923 8.61796 20993 ft 434 kts 232°
2026-04-30 20:04 48.30109 8.58165 21451 ft 437 kts 233°
2026-04-30 20:04 48.28277 8.54504 21933 ft 439 kts 233°
2026-04-30 20:05 48.24576 8.47142 22845 ft 445 kts 233°
2026-04-30 20:05 48.22705 8.43425 23231 ft 447 kts 232°
2026-04-30 20:05 48.18023 8.37253 23321 ft 459 kts 206°
2026-04-30 20:06 48.15075 8.35420 23322 ft 459 kts 195°
2026-04-30 20:06 48.11967 8.34424 23320 ft 458 kts 184°
2026-04-30 20:06 48.08790 8.34255 23321 ft 456 kts 173°
2026-04-30 20:06 48.05653 8.34855 23328 ft 454 kts 168°
2026-04-30 20:07 48.02535 8.35586 23317 ft 454 kts 168°
2026-04-30 20:07 47.99419 8.36337 23324 ft 454 kts 167°
2026-04-30 20:07 47.93179 8.37865 23325 ft 454 kts 167°
2026-04-30 20:08 47.90060 8.38624 23321 ft 454 kts 167°
2026-04-30 20:08 47.86944 8.39382 23323 ft 454 kts 167°
2026-04-30 20:08 47.83827 8.40138 23325 ft 454 kts 168°
2026-04-30 20:08 47.80713 8.40887 23317 ft 453 kts 168°
2026-04-30 20:09 47.77602 8.41631 23319 ft 453 kts 168°
2026-04-30 20:09 47.74491 8.42374 23306 ft 453 kts 167°
2026-04-30 20:09 47.68307 8.43841 23307 ft 453 kts 169°
2026-04-30 20:10 47.62028 8.44938 23284 ft 455 kts 172°
2026-04-30 20:10 47.58874 8.45350 23278 ft 455 kts 172°
2026-04-30 20:10 47.55716 8.45741 23276 ft 455 kts 172°
2026-04-30 20:11 47.49402 8.46564 23279 ft 455 kts 172°
2026-04-30 20:11 47.46251 8.47011 23279 ft 455 kts 172°
2026-04-30 20:11 47.43099 8.47477 23275 ft 455 kts 172°
2026-04-30 20:12 47.36804 8.48424 23274 ft 455 kts 172°
2026-04-30 20:12 47.33654 8.48891 23272 ft 455 kts 172°
2026-04-30 20:12 47.30503 8.49348 23266 ft 455 kts 172°
2026-04-30 20:13 47.27355 8.49805 23266 ft 455 kts 172°
2026-04-30 20:13 47.24209 8.50264 23263 ft 455 kts 172°
2026-04-30 20:13 47.21061 8.50724 23258 ft 455 kts 172°
2026-04-30 20:13 47.17912 8.51186 23256 ft 455 kts 172°
2026-04-30 20:14 47.14765 8.51645 23244 ft 454 kts 172°
2026-04-30 20:14 47.11618 8.52100 23243 ft 454 kts 172°
2026-04-30 20:14 47.08475 8.52551 23234 ft 454 kts 172°
2026-04-30 20:14 47.05328 8.53004 23243 ft 454 kts 172°
2026-04-30 20:15 47.02182 8.53458 23240 ft 455 kts 172°
2026-04-30 20:15 46.99030 8.53915 23235 ft 455 kts 172°
2026-04-30 20:15 46.95879 8.54375 23231 ft 455 kts 172°
2026-04-30 20:15 46.92729 8.54836 23232 ft 455 kts 172°
2026-04-30 20:16 46.89583 8.55292 23235 ft 455 kts 172°
2026-04-30 20:16 46.86429 8.55742 23233 ft 455 kts 172°
2026-04-30 20:16 46.83277 8.56187 23236 ft 455 kts 172°
2026-04-30 20:16 46.80121 8.56634 23244 ft 455 kts 172°
2026-04-30 20:17 46.76971 8.57082 23257 ft 455 kts 172°
2026-04-30 20:17 46.73854 8.57529 23242 ft 456 kts 172°
2026-04-30 20:17 46.70855 8.57963 23235 ft 456 kts 172°
2026-04-30 20:17 46.67696 8.58422 23236 ft 457 kts 172°
2026-04-30 20:18 46.64534 8.58878 23245 ft 457 kts 172°
2026-04-30 20:18 46.61363 8.59329 23242 ft 457 kts 172°
2026-04-30 20:18 46.58198 8.59775 23257 ft 457 kts 172°
2026-04-30 20:18 46.55021 8.60220 23259 ft 458 kts 172°
2026-04-30 20:19 46.51852 8.60662 23264 ft 458 kts 172°
2026-04-30 20:19 46.49755 8.60957 23264 ft 458 kts 172°
2026-04-30 20:19 46.45515 8.61556 23272 ft 458 kts 172°
2026-04-30 20:19 46.42341 8.62006 23271 ft 458 kts 172°
2026-04-30 20:20 46.39175 8.62452 23289 ft 458 kts 172°
2026-04-30 20:20 46.36003 8.62898 23284 ft 457 kts 172°
2026-04-30 20:20 46.32835 8.63344 23283 ft 457 kts 172°
2026-04-30 20:20 46.29674 8.63790 23282 ft 457 kts 172°
2026-04-30 20:21 46.26512 8.64238 23287 ft 457 kts 172°
2026-04-30 20:21 46.23341 8.64687 23289 ft 457 kts 172°
2026-04-30 20:21 46.20217 8.65129 23287 ft 458 kts 172°
2026-04-30 20:21 46.17050 8.65576 23287 ft 458 kts 172°
2026-04-30 20:22 46.13886 8.66037 23285 ft 457 kts 169°
2026-04-30 20:22 46.10796 8.66952 23103 ft 447 kts 161°
2026-04-30 20:22 46.07906 8.68484 22476 ft 438 kts 151°
2026-04-30 20:22 46.05243 8.70520 21854 ft 433 kts 148°
2026-04-30 20:23 46.02611 8.72608 21236 ft 429 kts 148°
2026-04-30 20:23 46.00003 8.74665 20629 ft 426 kts 148°
2026-04-30 20:23 45.97408 8.76700 20000 ft 424 kts 148°
2026-04-30 20:23 45.94824 8.78721 19419 ft 422 kts 148°
2026-04-30 20:24 45.92284 8.80698 19153 ft 403 kts 148°
2026-04-30 20:24 45.89891 8.82550 19034 ft 377 kts 148°
2026-04-30 20:24 45.87661 8.84276 18897 ft 353 kts 147°
2026-04-30 20:24 45.85543 8.85920 18452 ft 341 kts 147°
2026-04-30 20:25 45.81462 8.89092 17173 ft 332 kts 148°
2026-04-30 20:25 45.79444 8.90661 16525 ft 329 kts 148°
2026-04-30 20:26 45.75463 8.93753 15298 ft 322 kts 148°
2026-04-30 20:26 45.71562 8.96773 14146 ft 316 kts 149°
2026-04-30 20:26 45.69640 8.98257 13508 ft 313 kts 149°
2026-04-30 20:27 45.65850 9.01178 12268 ft 306 kts 149°
2026-04-30 20:27 45.62147 9.04032 11068 ft 299 kts 150°
2026-04-30 20:28 45.58528 9.06814 9901 ft 291 kts 150°
2026-04-30 20:28 45.54993 9.09520 8757 ft 286 kts 150°
2026-04-30 20:29 45.51542 9.12093 8244 ft 274 kts 157°
2026-04-30 20:30 45.46066 9.13219 7485 ft 260 kts 174°
2026-04-30 20:30 45.40697 9.13841 6767 ft 256 kts 174°
2026-04-30 20:31 45.35401 9.14437 5993 ft 255 kts 174°
2026-04-30 20:32 45.30121 9.15027 5235 ft 252 kts 174°
2026-04-30 20:32 45.26629 9.15412 5007 ft 251 kts 174°
2026-04-30 20:33 45.24897 9.15604 5002 ft 245 kts 174°
2026-04-30 20:33 45.21547 9.16003 4905 ft 240 kts 174°
2026-04-30 20:33 45.19889 9.16203 4543 ft 239 kts 174°
2026-04-30 20:34 45.16646 9.16903 4009 ft 231 kts 148°
2026-04-30 20:34 45.15103 9.20549 4007 ft 225 kts 91°
2026-04-30 20:35 45.15296 9.22729 4009 ft 224 kts 76°
2026-04-30 20:35 45.15680 9.24865 4009 ft 224 kts 74°
2026-04-30 20:35 45.17072 9.28707 4008 ft 225 kts 43°
2026-04-30 20:36 45.18406 9.29873 4008 ft 228 kts 23°
2026-04-30 20:36 45.19967 9.30316 4001 ft 232 kts
2026-04-30 20:36 45.23208 9.29994 4008 ft 234 kts 357°
2026-04-30 20:37 45.24831 9.29819 3926 ft 234 kts 358°
2026-04-30 20:37 45.26423 9.29648 3672 ft 222 kts 358°
2026-04-30 20:37 45.27924 9.29486 3413 ft 212 kts 358°
2026-04-30 20:37 45.29371 9.29331 3124 ft 204 kts 358°
2026-04-30 20:38 45.30755 9.29183 2885 ft 194 kts 359°
2026-04-30 20:38 45.32070 9.29041 2571 ft 185 kts 359°
2026-04-30 20:38 45.33289 9.28909 2345 ft 179 kts 360°
2026-04-30 20:39 45.35720 9.28648 1979 ft 163 kts
2026-04-30 20:39 45.36806 9.28531 1692 ft 154 kts
2026-04-30 20:39 45.37854 9.28419 1458 ft 150 kts
2026-04-30 20:40 45.39905 9.28201 1053 ft 146 kts 358°
2026-04-30 20:40 45.40928 9.28092 874 ft 150 kts 357°
2026-04-30 20:40 45.41962 9.27981 673 ft 148 kts 356°
2026-04-30 20:41 45.43997 9.27767 365 ft 136 kts 356°
2026-04-30 20:41 45.44740 9.27681 364 ft 66 kts 356°
2026-04-30 20:41 45.45143 9.27638 358 ft 45 kts 356°
2026-04-30 20:41 45.45348 9.27690 364 ft 22 kts 28°
2026-04-30 20:42 45.45451 9.27779 362 ft 12 kts 41°
2026-04-30 20:42 45.45495 9.27813 360 ft 10 kts
2026-04-30 20:42 45.45623 9.27816 360 ft 9 kts 359°
2026-04-30 20:43 45.45680 9.27816 360 ft 8 kts
2026-04-30 20:43 45.45736 9.27817 360 ft 10 kts
2026-04-30 20:43 45.45809 9.27818 360 ft 13 kts
2026-04-30 20:44 45.45907 9.27931 360 ft 9 kts 90°
2026-04-30 20:44 45.45944 9.27967 360 ft 7 kts 358°
2026-04-30 20:44 45.45973 9.27967 360 ft 0 kts